Time,TemperatureF,DewpointF,PressureIn,WindDirection,WindDirectionDegrees,WindSpeedMPH,WindSpeedGustMPH,Humidity,HourlyPrecipIn,Conditions,Clouds,dailyrainin,SoftwareType,DateUTC
2013-08-20 07:39:00,66.0,65.4,28.94,South,189,0.0,0.0,98,0.00,,FEW110,0.00,VWS V14.01,2013-08-20 11:39:00,
2013-08-20 07:40:00,66.0,65.4,28.94,South,189,0.0,0.0,98,0.00,,FEW110,0.00,VWS V14.01,2013-08-20 11:40:00,
2013-08-20 07:45:00,66.2,65.6,28.94,South,189,0.0,0.0,98,0.00,,FEW110,0.00,VWS V14.01,2013-08-20 11:45:00,
2013-08-20 07:50:00,66.2,65.6,28.94,South,189,0.0,0.0,98,0.00,,FEW110,0.00,VWS V14.01,2013-08-20 11:50:00,
2013-08-20 07:55:00,66.0,65.4,28.94,South,189,0.0,0.0,98,0.00,,FEW110,0.00,VWS V14.01,2013-08-20 11:55:00,
2013-08-20 08:00:00,66.2,65.6,28.94,South,189,0.0,0.0,98,0.00,,FEW110,0.00,VWS V14.01,2013-08-20 12:00:00,
2013-08-20 08:05:00,66.2,65.6,28.94,South,189,0.0,0.0,98,0.00,,OVC010,0.00,VWS V14.01,2013-08-20 12:05:00,
2013-08-20 08:10:00,66.2,65.6,28.94,South,189,0.0,0.0,98,0.00,,OVC010,0.00,VWS V14.01,2013-08-20 12:10:00,
2013-08-20 08:16:00,66.2,65.6,28.94,South,189,0.0,0.0,98,0.00,,OVC010,0.00,VWS V14.01,2013-08-20 12:16:00,
2013-08-20 08:21:00,66.0,65.4,28.94,South,189,0.0,0.0,98,0.00,,OVC010,0.00,VWS V14.01,2013-08-20 12:21:00,
2013-08-20 08:26:00,66.2,65.6,28.94,South,189,0.0,0.0,98,0.00,,OVC010,0.00,VWS V14.01,2013-08-20 12:26:00,
2013-08-20 08:31:00,66.2,65.6,28.94,South,189,0.0,0.0,98,0.00,,OVC010,0.00,VWS V14.01,2013-08-20 12:31:00,
2013-08-20 08:36:00,66.4,65.8,28.94,South,189,0.0,0.0,98,0.00,,OVC010,0.00,VWS V14.01,2013-08-20 12:36:00,
2013-08-20 08:41:00,66.6,66.0,28.94,South,189,0.0,0.0,98,0.00,,OVC010,0.00,VWS V14.01,2013-08-20 12:41:00,
2013-08-20 08:46:00,66.7,66.2,28.94,South,189,0.0,0.0,98,0.00,,OVC010,0.00,VWS V14.01,2013-08-20 12:46:00,
2013-08-20 08:51:00,66.7,66.2,28.94,South,189,0.0,0.0,98,0.00,,OVC010,0.00,VWS V14.01,2013-08-20 12:51:00,
2013-08-20 08:56:00,66.9,66.3,28.94,South,189,0.0,0.0,98,0.00,,OVC010,0.00,VWS V14.01,2013-08-20 12:56:00,
2013-08-20 09:01:00,67.1,66.5,28.94,South,189,0.0,0.0,98,0.00,,OVC010,0.00,VWS V14.01,2013-08-20 13:01:00,
2013-08-20 09:06:00,67.3,66.7,28.94,South,189,0.0,0.0,98,0.00,,OVC010,0.00,VWS V14.01,2013-08-20 13:06:00,
2013-08-20 09:11:00,67.3,66.7,28.94,South,189,0.0,0.0,98,0.00,,OVC010,0.00,VWS V14.01,2013-08-20 13:11:00,
2013-08-20 09:16:00,67.3,66.7,28.94,South,189,0.0,0.0,98,0.00,,OVC010,0.00,VWS V14.01,2013-08-20 13:16:00,
2013-08-20 09:21:00,67.5,66.9,28.94,South,189,0.0,0.0,98,0.00,,OVC010,0.00,VWS V14.01,2013-08-20 13:21:00,
2013-08-20 09:26:00,67.8,67.2,28.94,South,189,0.0,0.0,98,0.00,,OVC010,0.00,VWS V14.01,2013-08-20 13:26:00,
2013-08-20 09:31:00,67.6,67.1,28.94,South,189,0.0,0.0,98,0.00,,OVC010,0.00,VWS V14.01,2013-08-20 13:31:00,
2013-08-20 09:36:00,67.6,67.1,28.94,South,189,0.0,0.0,98,0.00,,OVC010,0.00,VWS V14.01,2013-08-20 13:36:00,
2013-08-20 09:42:00,67.6,67.1,28.97,South,189,0.0,0.0,98,0.00,,OVC010,0.00,VWS V14.01,2013-08-20 13:42:00,
2013-08-20 09:47:00,67.8,67.2,28.97,South,189,0.0,0.0,98,0.00,,OVC010,0.00,VWS V14.01,2013-08-20 13:47:00,
2013-08-20 09:52:00,68.0,67.4,28.97,South,189,0.0,0.0,98,0.00,,OVC010,0.00,VWS V14.01,2013-08-20 13:52:00,
2013-08-20 09:57:00,68.2,67.6,28.97,South,189,0.0,0.0,98,0.00,,OVC010,0.00,VWS V14.01,2013-08-20 13:57:00,
2013-08-20 10:02:00,68.4,67.8,28.97,South,189,0.0,0.0,98,0.00,,OVC008,0.00,VWS V14.01,2013-08-20 14:02:00,
2013-08-20 10:07:00,68.2,67.6,28.97,South,189,0.0,0.0,98,0.00,,OVC008,0.00,VWS V14.01,2013-08-20 14:07:00,
2013-08-20 10:12:00,68.4,67.8,28.97,South,189,0.0,0.0,98,0.00,,OVC008,0.00,VWS V14.01,2013-08-20 14:12:00,
2013-08-20 10:17:00,68.4,67.8,28.97,South,189,0.0,0.0,98,0.00,,OVC008,0.00,VWS V14.01,2013-08-20 14:17:00,
2013-08-20 10:22:00,68.4,67.5,28.97,South,189,0.0,0.0,97,0.00,,OVC008,0.00,VWS V14.01,2013-08-20 14:22:00,
2013-08-20 10:27:00,68.7,67.2,28.97,South,189,0.0,0.0,95,0.00,,OVC008,0.00,VWS V14.01,2013-08-20 14:27:00,
2013-08-20 10:32:00,69.1,66.7,28.97,South,189,0.0,0.0,92,0.00,,OVC010,0.00,VWS V14.01,2013-08-20 14:32:00,
2013-08-20 10:37:00,69.4,65.7,28.97,South,189,0.0,0.0,88,0.00,,OVC010,0.00,VWS V14.01,2013-08-20 14:37:00,
2013-08-20 10:42:00,69.6,63.5,28.97,South,189,0.0,0.0,81,0.00,,OVC010,0.00,VWS V14.01,2013-08-20 14:42:00,
2013-08-20 10:47:00,69.8,62.3,28.97,South,189,0.0,0.0,77,0.00,,OVC010,0.00,VWS V14.01,2013-08-20 14:47:00,
2013-08-20 10:52:00,71.1,57.0,28.97,South,189,0.0,0.0,61,0.00,,OVC010,0.00,VWS V14.01,2013-08-20 14:52:00,
2013-08-20 10:57:00,71.2,53.2,28.97,South,189,0.0,0.0,53,0.00,,OVC010,0.00,VWS V14.01,2013-08-20 14:57:00,
2013-08-20 11:02:00,71.6,56.5,28.97,South,189,0.0,0.0,59,0.00,,BKN014,0.00,VWS V14.01,2013-08-20 15:02:00,
2013-08-20 11:07:00,72.0,57.8,28.97,South,189,0.0,0.0,61,0.00,,BKN014,0.00,VWS V14.01,2013-08-20 15:07:00,
2013-08-20 11:13:00,72.7,53.0,28.97,ESE,106,0.0,0.0,50,0.00,,BKN014,0.00,VWS V14.01,2013-08-20 15:13:00,
2013-08-20 11:18:00,74.3,54.5,28.97,WSW,245,2.2,2.7,50,0.00,,BKN014,0.00,VWS V14.01,2013-08-20 15:18:00,
2013-08-20 11:23:00,74.1,53.2,28.97,WSW,244,3.1,3.1,48,0.00,,BKN014,0.00,VWS V14.01,2013-08-20 15:23:00,
2013-08-20 11:28:00,73.6,52.1,28.97,WSW,244,0.0,0.0,47,0.00,,BKN014,0.00,VWS V14.01,2013-08-20 15:28:00,
2013-08-20 11:33:00,73.9,50.7,28.97,WSW,245,0.0,0.0,44,0.00,,BKN014,0.00,VWS V14.01,2013-08-20 15:33:00,
2013-08-20 11:38:00,74.3,51.0,28.97,WNW,286,0.0,0.0,44,0.00,,BKN014,0.00,VWS V14.01,2013-08-20 15:38:00,
2013-08-20 11:43:00,74.3,51.0,28.97,WNW,286,0.0,0.0,44,0.00,,BKN014,0.00,VWS V14.01,2013-08-20 15:43:00,
2013-08-20 11:48:00,75.7,52.9,28.97,SE,125,0.0,0.0,45,0.00,,BKN014,0.00,VWS V14.01,2013-08-20 15:48:00,
2013-08-20 11:53:00,76.3,50.2,28.97,ESE,108,0.0,2.2,40,0.00,,BKN014,0.00,VWS V14.01,2013-08-20 15:53:00,
2013-08-20 11:58:00,76.5,48.3,28.97,ENE,71,0.0,2.2,37,0.00,,BKN014,0.00,VWS V14.01,2013-08-20 15:58:00,
2013-08-20 12:03:00,77.4,50.5,28.97,East,89,0.0,0.0,39,0.00,,BKN014,0.00,VWS V14.01,2013-08-20 16:03:00,
2013-08-20 12:08:00,78.3,49.1,28.97,SE,137,0.0,0.0,36,0.00,,BKN014,0.00,VWS V14.01,2013-08-20 16:08:00,
2013-08-20 12:13:00,78.1,48.2,28.97,SSW,202,0.0,2.2,35,0.00,,BKN014,0.00,VWS V14.01,2013-08-20 16:13:00,
2013-08-20 12:18:00,78.4,50.8,28.97,SE,127,0.0,0.0,38,0.00,,BKN014,0.00,VWS V14.01,2013-08-20 16:18:00,
2013-08-20 12:23:00,79.0,52.6,28.97,South,191,0.0,2.7,40,0.00,,BKN014,0.00,VWS V14.01,2013-08-20 16:23:00,
2013-08-20 12:28:00,79.3,49.3,28.97,South,188,2.7,2.7,35,0.00,,BKN014,0.00,VWS V14.01,2013-08-20 16:28:00,
2013-08-20 12:34:00,79.9,48.2,28.97,NE,49,0.0,0.0,33,0.00,,SCT016,0.00,VWS V14.01,2013-08-20 16:34:00,
2013-08-20 12:39:00,79.7,48.9,28.97,NE,37,2.2,2.2,34,0.00,,SCT016,0.00,VWS V14.01,2013-08-20 16:39:00,
2013-08-20 12:44:00,79.3,47.8,28.97,West,273,0.0,0.0,33,0.00,,SCT016,0.00,VWS V14.01,2013-08-20 16:44:00,
2013-08-20 12:49:00,79.3,48.6,28.97,NE,34,2.7,2.7,34,0.00,,SCT016,0.00,VWS V14.01,2013-08-20 16:49:00,
2013-08-20 12:54:00,79.9,48.2,28.97,NE,49,0.0,0.0,33,0.00,,SCT016,0.00,VWS V14.01,2013-08-20 16:54:00,
2013-08-20 12:59:00,80.2,48.5,28.97,East,84,3.6,3.6,33,0.00,,SCT016,0.00,VWS V14.01,2013-08-20 16:59:00,
2013-08-20 13:04:00,79.5,49.5,28.97,SSW,202,2.7,3.1,35,0.00,,SCT100,0.00,VWS V14.01,2013-08-20 17:04:00,
2013-08-20 13:09:00,79.2,47.6,28.97,SSW,196,2.7,2.7,33,0.00,,SCT100,0.00,VWS V14.01,2013-08-20 17:09:00,
2013-08-20 13:14:00,79.0,48.2,28.97,SW,222,2.7,2.7,34,0.00,,SCT100,0.00,VWS V14.01,2013-08-20 17:14:00,
2013-08-20 13:19:00,79.7,52.6,28.97,SSW,209,0.0,3.6,39,0.00,,SCT100,0.00,VWS V14.01,2013-08-20 17:19:00,
2013-08-20 13:24:00,80.1,51.5,28.97,SW,220,0.0,0.0,37,0.00,,SCT100,0.00,VWS V14.01,2013-08-20 17:24:00,
2013-08-20 13:29:00,80.4,47.9,28.97,ESE,116,0.0,0.0,32,0.00,,SCT100,0.00,VWS V14.01,2013-08-20 17:29:00,
2013-08-20 13:34:00,80.6,48.0,28.97,East,101,0.0,2.2,32,0.00,,SCT100,0.00,VWS V14.01,2013-08-20 17:34:00,
2013-08-20 13:39:00,81.0,49.2,28.97,SE,126,3.1,3.1,33,0.00,,SCT100,0.00,VWS V14.01,2013-08-20 17:39:00,
2013-08-20 13:44:00,80.8,49.8,28.97,SSW,193,3.6,3.6,34,0.00,,SCT100,0.00,VWS V14.01,2013-08-20 17:44:00,
2013-08-20 13:49:00,80.8,48.2,28.97,South,184,2.7,2.7,32,0.00,,SCT100,0.00,VWS V14.01,2013-08-20 17:49:00,
2013-08-20 13:54:00,80.6,48.9,28.97,ESE,110,2.7,2.7,33,0.00,,SCT100,0.00,VWS V14.01,2013-08-20 17:54:00,
2013-08-20 14:00:00,80.8,49.0,28.97,SSW,207,0.0,5.4,33,0.00,,SCT100,0.00,VWS V14.01,2013-08-20 18:00:00,
2013-08-20 14:04:00,80.4,47.0,28.97,South,186,4.0,4.0,31,0.00,,SCT100,0.00,VWS V14.01,2013-08-20 18:04:00,
2013-08-20 14:10:00,80.6,48.0,28.97,SSW,213,0.0,0.0,32,0.00,,SCT100,0.00,VWS V14.01,2013-08-20 18:10:00,
2013-08-20 14:15:00,80.4,47.0,28.97,North,1,2.7,2.7,31,0.00,,SCT100,0.00,VWS V14.01,2013-08-20 18:15:00,
2013-08-20 14:20:00,80.4,50.3,28.97,NE,36,0.0,0.0,35,0.00,,SCT100,0.00,VWS V14.01,2013-08-20 18:20:00,
2013-08-20 14:25:00,80.8,48.2,28.97,SE,129,2.7,2.7,32,0.00,,SCT100,0.00,VWS V14.01,2013-08-20 18:25:00,
2013-08-20 14:30:00,81.0,48.4,28.97,SE,128,0.0,0.0,32,0.00,,SCT100,0.00,VWS V14.01,2013-08-20 18:30:00,
2013-08-20 14:35:00,80.8,49.0,28.97,South,188,2.7,4.0,33,0.00,,SCT100,0.00,VWS V14.01,2013-08-20 18:35:00,
2013-08-20 14:40:00,81.0,47.5,28.94,South,188,2.7,2.7,31,0.00,,SCT100,0.00,VWS V14.01,2013-08-20 18:40:00,
2013-08-20 14:45:00,80.6,48.0,28.94,SE,135,3.1,3.1,32,0.00,,SCT100,0.00,VWS V14.01,2013-08-20 18:45:00,
2013-08-20 14:50:00,80.6,47.2,28.94,SE,135,3.1,3.1,31,0.00,,SCT100,0.00,VWS V14.01,2013-08-20 18:50:00,
2013-08-20 14:55:00,80.8,45.6,28.94,ENE,70,2.7,3.1,29,0.00,,SCT100,0.00,VWS V14.01,2013-08-20 18:55:00,
2013-08-20 15:00:00,80.8,46.5,28.94,East,97,0.0,2.2,30,0.00,,SCT100,0.00,VWS V14.01,2013-08-20 19:00:00,
2013-08-20 15:05:00,81.0,46.6,28.94,NNW,336,0.0,0.0,30,0.00,,BKN110,0.00,VWS V14.01,2013-08-20 19:05:00,
2013-08-20 15:10:00,80.8,47.4,28.94,SSW,200,5.8,5.8,31,0.00,,BKN110,0.00,VWS V14.01,2013-08-20 19:10:00,
2013-08-20 15:15:00,80.8,48.2,28.94,SW,226,2.2,2.7,32,0.00,,BKN110,0.00,VWS V14.01,2013-08-20 19:15:00,
2013-08-20 15:20:00,81.0,48.4,28.94,ESE,110,0.0,0.0,32,0.00,,BKN110,0.00,VWS V14.01,2013-08-20 19:20:00,
2013-08-20 15:25:00,80.4,47.9,28.94,ENE,65,2.2,2.2,32,0.00,,BKN110,0.00,VWS V14.01,2013-08-20 19:25:00,
2013-08-20 15:31:00,80.1,48.4,28.94,NE,41,0.0,0.0,33,0.00,,BKN110,0.00,VWS V14.01,2013-08-20 19:31:00,
2013-08-20 15:36:00,79.5,47.9,28.94,ESE,108,0.0,2.7,33,0.00,,BKN110,0.00,VWS V14.01,2013-08-20 19:36:00,
2013-08-20 15:41:00,79.3,49.3,28.94,South,175,0.0,0.0,35,0.00,,BKN110,0.00,VWS V14.01,2013-08-20 19:41:00,
2013-08-20 15:46:00,79.9,49.0,28.94,South,176,2.7,2.7,34,0.00,,BKN110,0.00,VWS V14.01,2013-08-20 19:46:00,
2013-08-20 15:51:00,80.4,47.9,28.94,ESE,103,0.0,0.0,32,0.00,,BKN110,0.00,VWS V14.01,2013-08-20 19:51:00,
2013-08-20 15:56:00,80.4,47.0,28.94,SSW,206,3.1,3.1,31,0.00,,BKN110,0.00,VWS V14.01,2013-08-20 19:56:00,
2013-08-20 16:01:00,80.2,48.5,28.94,SSW,210,3.6,3.6,33,0.00,,BKN110,0.00,VWS V14.01,2013-08-20 20:01:00,
2013-08-20 16:06:00,80.1,47.6,28.94,South,191,0.0,0.0,32,0.00,,BKN110,0.00,VWS V14.01,2013-08-20 20:06:00,
2013-08-20 16:11:00,80.2,49.3,28.91,ESE,116,0.0,2.2,34,0.00,,BKN110,0.00,VWS V14.01,2013-08-20 20:11:00,
2013-08-20 16:16:00,80.8,47.4,28.91,NE,39,2.7,2.7,31,0.00,,BKN110,0.00,VWS V14.01,2013-08-20 20:16:00,
2013-08-20 16:21:00,81.0,48.4,28.91,SSW,194,3.6,3.6,32,0.00,,BKN110,0.00,VWS V14.01,2013-08-20 20:21:00,
2013-08-20 16:26:00,81.0,47.5,28.91,South,191,0.0,0.0,31,0.00,,BKN110,0.00,VWS V14.01,2013-08-20 20:26:00,
2013-08-20 16:31:00,81.0,47.5,28.91,ENE,62,2.7,2.7,31,0.00,,BKN110,0.00,VWS V14.01,2013-08-20 20:31:00,
2013-08-20 16:36:00,81.5,49.7,28.91,South,190,0.0,0.0,33,0.00,,BKN110,0.00,VWS V14.01,2013-08-20 20:36:00,
2013-08-20 16:41:00,81.3,47.8,28.91,WNW,291,2.2,2.2,31,0.00,,BKN110,0.00,VWS V14.01,2013-08-20 20:41:00,
2013-08-20 16:46:00,81.0,47.5,28.91,SE,131,0.0,0.0,31,0.00,,BKN110,0.00,VWS V14.01,2013-08-20 20:46:00,
2013-08-20 16:51:00,80.8,48.2,28.91,SW,221,3.1,3.1,32,0.00,,BKN110,0.00,VWS V14.01,2013-08-20 20:51:00,
2013-08-20 16:56:00,80.4,48.7,28.91,ESE,114,0.0,2.7,33,0.00,,BKN110,0.00,VWS V14.01,2013-08-20 20:56:00,
2013-08-20 17:02:00,80.2,47.7,28.91,South,176,0.0,0.0,32,0.00,,BKN110,0.00,VWS V14.01,2013-08-20 21:02:00,
2013-08-20 17:07:00,79.7,47.3,28.91,SSW,206,3.6,3.6,32,0.00,,BKN110,0.00,VWS V14.01,2013-08-20 21:07:00,
2013-08-20 17:12:00,79.5,47.9,28.91,SW,219,2.7,2.7,33,0.00,,BKN110,0.00,VWS V14.01,2013-08-20 21:12:00,
2013-08-20 17:17:00,79.5,47.9,28.91,SSE,149,2.2,2.7,33,0.00,,BKN110,0.00,VWS V14.01,2013-08-20 21:17:00,
2013-08-20 17:22:00,79.5,49.5,28.91,SE,135,0.0,2.7,35,0.00,,BKN110,0.00,VWS V14.01,2013-08-20 21:22:00,
2013-08-20 17:27:00,79.5,49.5,28.91,SSW,196,0.0,3.1,35,0.00,,BKN110,0.00,VWS V14.01,2013-08-20 21:27:00,
2013-08-20 17:32:00,79.3,49.3,28.91,ESE,110,0.0,0.0,35,0.00,,SCT110,0.00,VWS V14.01,2013-08-20 21:32:00,
2013-08-20 17:37:00,79.3,47.8,28.91,ESE,110,0.0,0.0,33,0.00,,SCT110,0.00,VWS V14.01,2013-08-20 21:37:00,
2013-08-20 17:42:00,79.3,49.3,28.91,SE,130,0.0,0.0,35,0.00,,SCT110,0.00,VWS V14.01,2013-08-20 21:42:00,
2013-08-20 17:47:00,79.2,49.9,28.91,South,190,2.2,2.2,36,0.00,,SCT110,0.00,VWS V14.01,2013-08-20 21:47:00,
2013-08-20 17:52:00,79.2,50.7,28.91,SSE,168,2.2,2.2,37,0.00,,SCT110,0.00,VWS V14.01,2013-08-20 21:52:00,
2013-08-20 17:57:00,79.0,49.8,28.91,SE,124,0.0,2.2,36,0.00,,SCT110,0.00,VWS V14.01,2013-08-20 21:57:00,
2013-08-20 18:02:00,78.8,51.1,28.91,SSW,197,4.0,4.0,38,0.00,,SCT095,0.00,VWS V14.01,2013-08-20 22:02:00,
2013-08-20 18:07:00,78.8,49.6,28.91,SSW,197,0.0,0.0,36,0.00,,SCT095,0.00,VWS V14.01,2013-08-20 22:07:00,
2013-08-20 18:12:00,78.8,52.5,28.91,East,85,0.0,0.0,40,0.00,,SCT095,0.00,VWS V14.01,2013-08-20 22:12:00,
2013-08-20 18:17:00,78.4,52.8,28.91,SSE,150,0.0,0.0,41,0.00,,SCT095,0.00,VWS V14.01,2013-08-20 22:17:00,
2013-08-20 18:22:00,78.3,52.0,28.91,SSE,150,0.0,0.0,40,0.00,,SCT095,0.00,VWS V14.01,2013-08-20 22:22:00,
2013-08-20 18:27:00,78.1,51.8,28.91,ESE,102,3.1,3.1,40,0.00,,SCT095,0.00,VWS V14.01,2013-08-20 22:27:00,
2013-08-20 18:32:00,77.9,51.7,28.91,ESE,122,0.0,0.0,40,0.00,,SCT095,0.00,VWS V14.01,2013-08-20 22:32:00,
2013-08-20 18:37:00,77.7,52.2,28.91,ESE,112,0.0,0.0,41,0.00,,SCT095,0.00,VWS V14.01,2013-08-20 22:37:00,
2013-08-20 18:43:00,77.5,51.3,28.91,ESE,112,0.0,0.0,40,0.00,,SCT095,0.00,VWS V14.01,2013-08-20 22:43:00,
2013-08-20 18:48:00,77.5,51.3,28.91,ESE,117,2.2,2.2,40,0.00,,SCT095,0.00,VWS V14.01,2013-08-20 22:48:00,
2013-08-20 18:53:00,77.5,52.0,28.91,ESE,111,0.0,0.0,41,0.00,,SCT095,0.00,VWS V14.01,2013-08-20 22:53:00,
2013-08-20 18:58:00,77.5,52.7,28.91,SE,140,0.0,0.0,42,0.00,,SCT095,0.00,VWS V14.01,2013-08-20 22:58:00,
2013-08-20 19:03:00,77.4,52.5,28.91,SSW,208,0.0,0.0,42,0.00,,SCT110,0.00,VWS V14.01,2013-08-20 23:03:00,
2013-08-20 19:08:00,77.2,52.3,28.91,SSW,208,0.0,0.0,42,0.00,,SCT110,0.00,VWS V14.01,2013-08-20 23:08:00,
2013-08-20 19:13:00,77.2,51.7,28.91,SSW,208,0.0,0.0,41,0.00,,SCT110,0.00,VWS V14.01,2013-08-20 23:13:00,
2013-08-20 19:18:00,77.0,52.8,28.91,SSW,208,0.0,0.0,43,0.00,,SCT110,0.00,VWS V14.01,2013-08-20 23:18:00,
2013-08-20 19:23:00,76.8,53.3,28.91,SSW,208,0.0,0.0,44,0.00,,SCT110,0.00,VWS V14.01,2013-08-20 23:23:00,
2013-08-20 19:28:00,76.6,53.1,28.91,SSW,208,0.0,0.0,44,0.00,,SCT110,0.00,VWS V14.01,2013-08-20 23:28:00,
2013-08-20 19:33:00,76.5,53.0,28.91,SSW,208,0.0,0.0,44,0.00,,SCT110,0.00,VWS V14.01,2013-08-20 23:33:00,
2013-08-20 19:38:00,76.5,53.0,28.91,SSW,208,0.0,0.0,44,0.00,,SCT110,0.00,VWS V14.01,2013-08-20 23:38:00,
2013-08-20 19:43:00,76.5,53.6,28.94,SSW,208,0.0,0.0,45,0.00,,SCT110,0.00,VWS V14.01,2013-08-20 23:43:00,
2013-08-20 19:48:00,76.3,53.4,28.94,SSW,208,0.0,0.0,45,0.00,,SCT110,0.00,VWS V14.01,2013-08-20 23:48:00,
2013-08-20 19:53:00,76.1,53.8,28.94,SSW,208,0.0,0.0,46,0.00,,SCT110,0.00,VWS V14.01,2013-08-20 23:53:00,
2013-08-20 19:58:00,75.9,54.3,28.94,SSW,208,0.0,0.0,47,0.00,,SCT110,0.00,VWS V14.01,2013-08-20 23:58:00,
2013-08-20 20:03:00,75.7,55.2,28.94,SSW,208,0.0,0.0,49,0.00,,SCT110,0.00,VWS V14.01,2013-08-21 00:03:00,
2013-08-20 20:08:00,75.6,55.6,28.94,SSW,208,0.0,0.0,50,0.00,,SCT110,0.00,VWS V14.01,2013-08-21 00:08:00,
2013-08-20 20:14:00,75.4,56.0,28.94,SSW,194,0.0,0.0,51,0.00,,SCT110,0.00,VWS V14.01,2013-08-21 00:14:00,
2013-08-20 20:19:00,75.2,56.4,28.94,SSW,194,0.0,0.0,52,0.00,,SCT110,0.00,VWS V14.01,2013-08-21 00:19:00,
2013-08-20 20:24:00,75.0,57.3,28.94,ENE,70,2.7,2.7,54,0.00,,SCT110,0.00,VWS V14.01,2013-08-21 00:24:00,
2013-08-20 20:29:00,74.8,57.6,28.94,ESE,109,0.0,0.0,55,0.00,,SCT110,0.00,VWS V14.01,2013-08-21 00:29:00,
2013-08-20 20:34:00,74.7,57.9,28.94,ESE,109,0.0,0.0,56,0.00,,SCT110,0.00,VWS V14.01,2013-08-21 00:34:00,
2013-08-20 20:39:00,74.5,58.3,28.94,ESE,109,0.0,0.0,57,0.00,,SCT110,0.00,VWS V14.01,2013-08-21 00:39:00,
2013-08-20 20:44:00,74.3,58.1,28.94,ESE,109,0.0,0.0,57,0.00,,SCT110,0.00,VWS V14.01,2013-08-21 00:44:00,
2013-08-20 20:49:00,74.1,57.9,28.94,ESE,109,2.2,2.2,57,0.00,,SCT110,0.00,VWS V14.01,2013-08-21 00:49:00,
2013-08-20 20:54:00,73.9,58.2,28.94,ESE,109,0.0,2.2,58,0.00,,SCT110,0.00,VWS V14.01,2013-08-21 00:54:00,
2013-08-20 20:59:00,73.8,58.5,28.94,ESE,109,0.0,0.0,59,0.00,,SCT110,0.00,VWS V14.01,2013-08-21 00:59:00,
2013-08-20 21:04:00,73.6,57.9,28.94,ESE,109,0.0,0.0,58,0.00,,SCT110,0.00,VWS V14.01,2013-08-21 01:04:00,
2013-08-20 21:09:00,73.6,58.4,28.94,ESE,109,0.0,0.0,59,0.00,,SCT110,0.00,VWS V14.01,2013-08-21 01:09:00,
2013-08-20 21:14:00,73.6,57.4,28.94,SSW,195,2.7,2.7,57,0.00,,SCT110,0.00,VWS V14.01,2013-08-21 01:14:00,
2013-08-20 21:19:00,73.8,57.6,28.94,SSW,195,0.0,0.0,57,0.00,,SCT110,0.00,VWS V14.01,2013-08-21 01:19:00,
2013-08-20 21:24:00,73.8,57.1,28.94,SSW,195,0.0,0.0,56,0.00,,SCT110,0.00,VWS V14.01,2013-08-21 01:24:00,
2013-08-20 21:29:00,73.6,57.4,28.94,SSW,195,0.0,0.0,57,0.00,,SCT110,0.00,VWS V14.01,2013-08-21 01:29:00,
2013-08-20 21:34:00,73.6,57.4,28.94,SSW,195,0.0,0.0,57,0.00,,SCT110,0.00,VWS V14.01,2013-08-21 01:34:00,
2013-08-20 21:39:00,73.6,57.4,28.97,SSW,207,0.0,0.0,57,0.00,,SCT110,0.00,VWS V14.01,2013-08-21 01:39:00,
2013-08-20 21:45:00,73.6,57.4,28.97,SSW,207,0.0,0.0,57,0.00,,SCT110,0.00,VWS V14.01,2013-08-21 01:45:00,
2013-08-20 21:50:00,73.4,57.3,28.97,SSW,207,0.0,0.0,57,0.00,,SCT110,0.00,VWS V14.01,2013-08-21 01:50:00,
2013-08-20 21:55:00,73.2,57.6,28.94,SSW,207,0.0,0.0,58,0.00,,SCT110,0.00,VWS V14.01,2013-08-21 01:55:00,
2013-08-20 22:00:00,73.2,58.0,28.94,SSW,207,0.0,0.0,59,0.00,,SCT110,0.00,VWS V14.01,2013-08-21 02:00:00,
2013-08-20 22:05:00,72.9,58.2,28.94,SSW,207,0.0,0.0,60,0.00,,FEW110,0.00,VWS V14.01,2013-08-21 02:05:00,
2013-08-20 22:10:00,72.9,58.6,28.97,SSW,207,0.0,0.0,61,0.00,,FEW110,0.00,VWS V14.01,2013-08-21 02:10:00,
2013-08-20 22:15:00,72.5,58.8,28.97,SSW,207,0.0,0.0,62,0.00,,FEW110,0.00,VWS V14.01,2013-08-21 02:15:00,
2013-08-20 22:20:00,72.3,59.5,28.97,SSW,207,0.0,0.0,64,0.00,,FEW110,0.00,VWS V14.01,2013-08-21 02:20:00,
2013-08-20 22:25:00,72.3,59.5,28.97,SSW,207,0.0,0.0,64,0.00,,FEW110,0.00,VWS V14.01,2013-08-21 02:25:00,
2013-08-20 22:30:00,72.1,60.2,28.97,SSW,207,0.0,0.0,66,0.00,,FEW110,0.00,VWS V14.01,2013-08-21 02:30:00,
2013-08-20 22:35:00,72.0,60.4,28.97,SE,143,0.0,0.0,67,0.00,,FEW110,0.00,VWS V14.01,2013-08-21 02:35:00,
2013-08-20 22:40:00,71.8,60.2,28.97,SE,143,0.0,0.0,67,0.00,,FEW110,0.00,VWS V14.01,2013-08-21 02:40:00,
2013-08-20 22:45:00,71.8,60.2,28.97,SE,143,0.0,0.0,67,0.00,,FEW110,0.00,VWS V14.01,2013-08-21 02:45:00,
2013-08-20 22:50:00,72.0,60.8,28.97,SE,143,0.0,0.0,68,0.00,,FEW110,0.00,VWS V14.01,2013-08-21 02:50:00,
2013-08-20 22:55:00,71.8,60.7,28.97,SE,143,0.0,0.0,68,0.00,,FEW110,0.00,VWS V14.01,2013-08-21 02:55:00,
2013-08-20 23:00:00,71.8,60.7,28.97,SE,143,0.0,0.0,68,0.00,,FEW110,0.00,VWS V14.01,2013-08-21 03:00:00,
2013-08-20 23:05:00,71.6,60.5,28.97,SE,143,0.0,0.0,68,0.00,,FEW110,0.00,VWS V14.01,2013-08-21 03:05:00,